| time (UTC) | temp C | wind direction | speed KPH | gust KPH | rain 1hr cm | rain 24hr cm | rain mn cm | humidity % | barometer mb |
| 20260505080034 | 5 | 342 | 0.0 | 4.8 | 0.00 | 0.36 | 0.00 | 85 | 1004.7 |
| 20260505074519 | 6 | 360 | 0.0 | 6.4 | 0.00 | 0.36 | 0.00 | 84 | 1004.7 |
| 20260505073027 | 8 | 360 | 0.0 | 3.2 | 0.00 | 0.36 | 0.00 | 83 | 1004.6 |
| 20260505071512 | 8 | 360 | 0.0 | 1.6 | 0.00 | 0.36 | 0.00 | 82 | 1004.3 |
| 20260505070010 | 8 | 360 | 0.0 | 1.6 | 0.00 | 0.36 | 0.00 | 82 | 1004.0 |
| 20260505064509 | 8 | 181 | 0.0 | 1.6 | 0.00 | 0.36 | 0.00 | 83 | 1003.9 |
| 20260505063006 | 8 | 360 | 0.0 | 1.6 | 0.00 | 0.36 | 0.00 | 83 | 1004.0 |
| 20260505061504 | 8 | 360 | 0.0 | 1.6 | 0.00 | 0.36 | 0.00 | 82 | 1003.8 |
| 20260505060004 | 8 | 360 | 0.0 | 1.6 | 0.00 | 0.36 | 0.00 | 83 | 1003.8 |
| 20260505054503 | 7 | 179 | 0.0 | 1.6 | 0.00 | 0.36 | 0.36 | 83 | 1003.9 |
| 20260505053002 | 7 | 160 | 0.0 | 1.6 | 0.00 | 0.36 | 0.36 | 83 | 1003.5 |
| 20260505051502 | 7 | 360 | 0.0 | 3.2 | 0.00 | 0.36 | 0.36 | 84 | 1003.6 |
| 20260505041605 | 7 | 221 | 0.0 | 1.6 | 0.05 | 0.36 | 0.36 | 87 | 1003.7 |
| 20260505040059 | 8 | 245 | 0.0 | 1.6 | 0.15 | 0.36 | 0.36 | 87 | 1003.6 |
| 20260505034558 | 8 | 219 | 0.0 | 1.6 | 0.30 | 0.36 | 0.36 | 87 | 1003.5 |
| 20260505033057 | 8 | 360 | 0.0 | 3.2 | 0.33 | 0.33 | 0.33 | 86 | 1003.7 |
| 20260505031555 | 8 | 258 | 0.0 | 1.6 | 0.30 | 0.30 | 0.30 | 85 | 1003.4 |
| 20260505030110 | 8 | 360 | 1.6 | 6.4 | 0.18 | 0.18 | 0.18 | 82 | 1003.1 |
| 20260505024551 | 9 | 360 | 0.0 | 4.8 | 0.05 | 0.05 | 0.05 | 78 | 1002.7 |
| 20260505023046 | 10 | 282 | 0.0 | 4.8 | 0.00 | 0.00 | 0.00 | 74 | 1002.3 |
| 20260505021544 | 10 | 288 | 0.0 | 1.6 | 0.00 | 0.00 | 0.00 | 72 | 1001.9 |
| 20260505020043 | 10 | 292 | 0.0 | 3.2 | 0.00 | 0.00 | 0.00 | 70 | 1002.1 |
| 20260505014602 | 10 | 284 | 0.0 | 1.6 | 0.00 | 0.00 | 0.00 | 68 | 1002.0 |
| 20260505013048 | 11 | 315 | 0.0 | 3.2 | 0.00 | 0.00 | 0.00 | 64 | 1001.7 |
| 20260505011541 | 13 | 360 | 3.2 | 19.3 | 0.00 | 0.00 | 0.00 | 54 | 1001.8 |
| 20260505010046 | 13 | 304 | 0.0 | 0.0 | 0.00 | 0.00 | 0.00 | 53 | 1001.2 |
| 20260505004546 | 13 | 355 | 0.0 | 6.4 | 0.00 | 0.00 | 0.00 | 53 | 1001.0 |
| 20260505003051 | 13 | 338 | 0.0 | 6.4 | 0.00 | 0.00 | 0.00 | 53 | 1000.9 |
| 20260505001533 | 15 | 298 | 0.0 | 3.2 | 0.00 | 0.00 | 0.00 | 48 | 1000.5 |
| 20260505000035 | 15 | 360 | 0.0 | 0.0 | 0.00 | 0.00 | 0.00 | 48 | 1000.4 |
| 20260504234532 | 15 | 279 | 0.0 | 0.0 | 0.00 | 0.00 | 0.00 | 47 | 1000.6 |
| 20260504233035 | 15 | 292 | 0.0 | 1.6 | 0.00 | 0.00 | 0.00 | 46 | 1000.4 |
| 20260504231530 | 15 | 332 | 0.0 | 9.7 | 0.00 | 0.00 | 0.00 | 46 | 1000.3 |
| 20260504230031 | 15 | 360 | 1.6 | 12.9 | 0.00 | 0.00 | 0.00 | 45 | 1000.3 |
| 20260504224530 | 15 | 360 | 3.2 | 17.7 | 0.00 | 0.00 | 0.00 | 49 | 1000.5 |
| 20260504223037 | 15 | 262 | 0.0 | 11.3 | 0.00 | 0.00 | 0.00 | 42 | 1000.6 |
| 20260504221527 | 15 | 36 | 0.0 | 8.0 | 0.00 | 0.00 | 0.00 | 42 | 1000.2 |
| 20260504220030 | 15 | 355 | 0.0 | 12.9 | 0.00 | 0.00 | 0.00 | 42 | 999.5 |
| 20260504214526 | 16 | 296 | 0.0 | 6.4 | 0.00 | 0.00 | 0.00 | 41 | 999.2 |
| 20260504213029 | 16 | 360 | 1.6 | 30.6 | 0.00 | 0.00 | 0.00 | 38 | 999.1 |
| 20260504211534 | 17 | 9 | 1.6 | 16.1 | 0.00 | 0.00 | 0.00 | 36 | 999.3 |
| 20260504210025 | 18 | 360 | 0.0 | 14.5 | 0.00 | 0.00 | 0.00 | 32 | 999.1 |
| 20260504204524 | 18 | 360 | 1.6 | 14.5 | 0.00 | 0.00 | 0.00 | 34 | 998.6 |
| 20260504203024 | 19 | 360 | 3.2 | 19.3 | 0.00 | 0.00 | 0.00 | 30 | 998.7 |
| 20260504201522 | 19 | 360 | 1.6 | 14.5 | 0.00 | 0.00 | 0.00 | 30 | 998.8 |
| 20260504200023 | 17 | 163 | 1.6 | 9.7 | 0.00 | 0.00 | 0.00 | 35 | 999.1 |
| 20260504194521 | 18 | 360 | 3.2 | 22.5 | 0.00 | 0.00 | 0.00 | 31 | 999.4 |
| 20260504193022 | 21 | 261 | 1.6 | 8.0 | 0.00 | 0.00 | 0.00 | 22 | 998.8 |
| 20260504191525 | 22 | 291 | 1.6 | 14.5 | 0.00 | 0.00 | 0.00 | 21 | 998.3 |
| 20260504190018 | 22 | 360 | 4.8 | 25.7 | 0.00 | 0.00 | 0.00 | 21 | 998.3 |
| 20260504184515 | 21 | 360 | 1.6 | 12.9 | 0.00 | 0.00 | 0.00 | 24 | 998.5 |
| 20260504183014 | 22 | 360 | 3.2 | 16.1 | 0.00 | 0.00 | 0.00 | 23 | 998.7 |
| 20260504181512 | 21 | 360 | 3.2 | 24.1 | 0.00 | 0.00 | 0.00 | 25 | 998.7 |
| 20260504180009 | 21 | 360 | 1.6 | 24.1 | 0.00 | 0.00 | 0.00 | 25 | 999.0 |
| 20260504174505 | 20 | 360 | 4.8 | 24.1 | 0.00 | 0.00 | 0.00 | 26 | 999.4 |
| 20260504173001 | 20 | 360 | 1.6 | 17.7 | 0.00 | 0.00 | 0.00 | 28 | 999.7 |
| 20260504171558 | 19 | 306 | 1.6 | 24.1 | 0.00 | 0.00 | 0.00 | 28 | 1000.0 |
| 20260504081519 | 8 | 272 | 0.0 | 0.0 | 0.00 | 0.00 | 0.00 | 45 | 1000.8 |